TimeCST,TemperatureF,Dew PointF,Humidity,Sea Level PressureIn,VisibilityMPH,Wind Direction,Wind SpeedMPH,Gust SpeedMPH,PrecipitationIn,Events,Conditions,WindDirDegrees,DateUTC
12:53 AM,62.1,57.9,86,29.64,10.0,South,11.5,-,N/A,,Clear,180,2013-12-04 06:53:00
1:53 AM,61.0,57.9,90,29.64,9.0,South,12.7,-,N/A,,Clear,170,2013-12-04 07:53:00
2:53 AM,61.0,57.9,90,29.65,8.0,South,11.5,-,N/A,,Clear,180,2013-12-04 08:53:00
3:53 AM,61.0,57.9,90,29.65,7.0,South,10.4,-,N/A,,Clear,180,2013-12-04 09:53:00
4:22 AM,60.8,59.0,94,29.68,6.0,South,10.4,-,N/A,,Scattered Clouds,180,2013-12-04 10:22:00
4:36 AM,62.6,59.0,88,29.67,6.0,South,11.5,-,N/A,,Mostly Cloudy,180,2013-12-04 10:36:00
4:53 AM,62.1,59.0,90,29.67,6.0,South,10.4,-,N/A,,Mostly Cloudy,180,2013-12-04 10:53:00
5:53 AM,63.0,60.1,90,29.69,6.0,South,13.8,-,N/A,,Overcast,190,2013-12-04 11:53:00
6:53 AM,63.0,60.1,90,29.70,7.0,South,13.8,-,N/A,,Overcast,190,2013-12-04 12:53:00
7:53 AM,64.0,61.0,90,29.72,7.0,South,17.3,20.7,N/A,,Overcast,190,2013-12-04 13:53:00
8:53 AM,66.0,61.0,84,29.76,9.0,South,12.7,-,N/A,,Overcast,190,2013-12-04 14:53:00
9:46 AM,66.2,60.8,83,29.77,10.0,South,12.7,21.9,N/A,,Overcast,180,2013-12-04 15:46:00
9:53 AM,66.9,61.0,81,29.76,10.0,South,19.6,24.2,N/A,,Mostly Cloudy,180,2013-12-04 15:53:00
10:11 AM,68.0,60.8,78,29.77,10.0,South,13.8,-,N/A,,Partly Cloudy,180,2013-12-04 16:11:00
10:53 AM,71.1,61.0,70,29.75,10.0,South,15.0,-,N/A,,Clear,190,2013-12-04 16:53:00
11:53 AM,73.9,60.1,62,29.73,10.0,SSW,18.4,-,N/A,,Clear,200,2013-12-04 17:53:00
12:53 PM,77.0,59.0,54,29.71,10.0,SSW,9.2,-,N/A,,Clear,210,2013-12-04 18:53:00
1:53 PM,78.1,59.0,52,29.68,10.0,South,16.1,-,N/A,,Clear,190,2013-12-04 19:53:00
2:53 PM,78.1,59.0,52,29.68,10.0,SSW,10.4,-,N/A,,Clear,200,2013-12-04 20:53:00
3:53 PM,77.0,59.0,54,29.69,10.0,South,13.8,-,N/A,,Clear,190,2013-12-04 21:53:00
4:53 PM,75.0,60.1,60,29.70,10.0,South,9.2,-,N/A,,Clear,190,2013-12-04 22:53:00
5:53 PM,70.0,60.1,71,29.73,10.0,South,5.8,-,N/A,,Clear,190,2013-12-04 23:53:00
6:53 PM,69.1,61.0,75,29.75,9.0,South,3.5,-,N/A,,Mostly Cloudy,190,2013-12-05 00:53:00
7:53 PM,66.9,60.1,79,29.75,9.0,South,5.8,-,N/A,,Mostly Cloudy,170,2013-12-05 01:53:00
8:53 PM,69.1,62.1,78,29.76,9.0,South,8.1,-,N/A,,Overcast,170,2013-12-05 02:53:00
9:53 PM,66.9,62.1,84,29.79,7.0,South,3.5,-,N/A,,Mostly Cloudy,190,2013-12-05 03:53:00
10:38 PM,68.0,62.6,83,29.82,6.0,Calm,Calm,-,N/A,,Haze,0,2013-12-05 04:38:00
10:46 PM,68.0,62.6,83,29.82,6.0,Calm,Calm,-,N/A,,Haze,0,2013-12-05 04:46:00
10:53 PM,66.9,63.0,87,29.81,6.0,Calm,Calm,-,N/A,,Overcast,0,2013-12-05 04:53:00
11:00 PM,66.2,62.6,88,29.82,6.0,Calm,Calm,-,N/A,,Overcast,0,2013-12-05 05:00:00
11:37 PM,66.2,62.6,88,29.83,6.0,SSE,3.5,-,N/A,,Overcast,160,2013-12-05 05:37:00
11:53 PM,66.9,63.0,87,29.81,6.0,South,3.5,-,N/A,,Overcast,170,2013-12-05 05:53:00